Weather History for MMLP - October, 2013

Change the Weather History Date:

Sunday, October 20, 2013

  Actual Average Record
Temperature  
Mean Temperature 76 °F -  
Max Temperature 91 °F 85 °F 98 °F (2004)
Min Temperature 62 °F 62 °F 60 °F (2004)
Cooling Degree Days 12    
Growing Degree Days 26 (Base 50)    
Moisture  
Dew Point 60 °F    
Average Humidity 56    
Maximum Humidity 94    
Minimum Humidity 28    
Precipitation  
Precipitation 0.00 in - - ()
Sea Level Pressure  
Sea Level Pressure 29.89 in    
Wind  
Wind Speed 4 mph ()    
Max Wind Speed 12 mph    
Max Gust Speed -    
Visibility 10.4 miles    
Events      
Averages and records for this station are not official NWS values.
T = Trace of Precipitation, MM = Missing Value Source: Averaged Metar Reports

Daily Weather History Graph

Daily Weather History Graph

Search for Another Location

Airport or City:

Trip Planner

Search our weather history database for the weather conditions in past years. The results will help you decide how hot, cold, wet, or windy it might be!

Date:

Astronomy

Oct. 20, 2013 Rise Set
Actual Time 7:21 AM MDT 6:50 PM MDT
Civil Twilight 6:58 AM MDT 7:13 PM MDT
Nautical Twilight 6:31 AM MDT 7:39 PM MDT
Astronomical Twilight 6:05 AM MDT 8:06 PM MDT
Moon 8:14 PM MDT (10/20) 8:51 AM MDT (10/20)
Length of Visible Light 12h 14m
Length of Day
11h 29m
Full, 97% of the Moon is Illuminated
Oct 20
Full
Oct 26
Last Quarter
Nov 3
New
Nov 9
First Quarter
Nov 17
Full

Hourly Weather History & Observations

Time (MDT) Temp. Heat Index Dew Point Humidity Pressure Visibility Wind Dir Wind Speed Gust Speed Precip Events Conditions
2:50 AM 72 °F - 65 °F 73% 29.89 in 2 mi SSE 2.2 mph - -  
5:41 AM 62.6 °F - 60.8 °F 94% 29.94 in 10.0 mi South 3.5 mph - N/A   Clear
5:50 AM 68 °F - 64 °F 82% 29.88 in 2 mi SE 2.2 mph - -  
6:42 AM 62.6 °F - 60.8 °F 94% 29.90 in 10.0 mi South 5.8 mph - N/A   Clear
7:53 AM 64.4 °F - 60.8 °F 88% 29.91 in 12.0 mi South 4.6 mph - N/A   Clear
8:40 AM 66.2 °F - 62.6 °F 88% 29.97 in 12.0 mi South 3.5 mph - N/A   Clear
9:00 AM 73 °F - 63 °F 62% 29.91 in 12 mi South 2.2 mph - -  
9:44 AM 77.0 °F - 60.8 °F 57% 29.93 in 12.0 mi Calm Calm - N/A   Clear
10:46 AM 80.6 °F 81.8 °F 62.6 °F 54% 29.93 in 12.0 mi NNW 6.9 mph - N/A   Clear
11:40 AM 86 °F - 68 °F 46% 29.98 in 19 mi NW 6.7 mph - -  
11:40 AM 82.4 °F 83.9 °F 64.4 °F 54% 29.96 in 12.0 mi NNW 4.6 mph - N/A   Clear
12:40 PM 82.4 °F 83.9 °F 64.4 °F 54% 29.90 in 12.0 mi North 6.9 mph - N/A   Clear
1:40 PM 84.2 °F 85.0 °F 62.6 °F 48% 29.87 in 12.0 mi NNW 6.9 mph - N/A   Clear
2:40 PM 90 °F - 64 °F 31% 29.88 in 19 mi NW 8.9 mph - -  
2:49 PM 86.0 °F 85.4 °F 59.0 °F 40% 29.96 in 10.0 mi North 11.5 mph - N/A   Clear
3:40 PM 86.0 °F 84.2 °F 53.6 °F 33% 29.82 in 10.0 mi NNW 11.5 mph - N/A   Clear
4:45 PM 86.0 °F - 51.8 °F 31% 29.82 in 10.0 mi North 9.2 mph - N/A   Clear
5:47 PM 84.2 °F 82.8 °F 53.6 °F 35% 29.93 in 10.0 mi North 11.5 mph - N/A   Clear
5:50 PM 88 °F - 59 °F 28% 29.81 in 19 mi North 6.7 mph - -  
6:46 PM 82.4 °F 81.4 °F 53.6 °F 37% 29.84 in 10.0 mi North 9.2 mph - N/A   Clear
7:44 PM 78.8 °F - 55.4 °F 44% 29.65 in 10.0 mi North 5.8 mph - N/A   Clear
8:45 PM 79 °F - 63 °F 49% 29.85 in 2 mi ENE 2.2 mph - -  
9:45 PM 73.4 °F - 59.0 °F 61% 29.88 in 10.0 mi Calm Calm - N/A   Clear
10:46 PM 69.8 °F - 59.0 °F 68% 29.90 in 10.0 mi Calm Calm - N/A   Clear
11:50 PM 74 °F - 57 °F 44% 29.89 in 2 mi SSE 2.2 mph - -